Location: Newark
(44.3248°N, 23.7839°E)
Time: 15:53:32
(UTC+00:00)

FO-29 - Pass Details

Date: 03 May 2024
Orbit: 801 x 1320 km, 98.6° (Epoch: 19 May)

Event Time Altitude Azimuth Distance (km) Brightness Sun altitude
Rises 02:39:07 0° 2° (N) 4,282 13.3 -6.2°
Reaches altitude 10° 02:43:14 10° 341° (NNW) 3,345 12.4 -5.6°
Maximum altitude 02:47:10 15° 311° (NW) 2,984 11.8 -4.9°
Drops below altitude 10° 02:51:06 10° 280° (W) 3,342 11.8 -4.3°
Enters shadow 02:54:25 - 263° (W) 4,066 12.1 -3.8°
